{"data":{"norad_id":64031,"epoch":"2026-05-24T19:32:16.788480Z","epoch_age_seconds":81187,"freshness":"FRESH","line1":"1 64031U 25102K   26144.81408320  .00005356  00000+0  45619-3 0  9993","line2":"2 64031  70.0008 282.5655 0003052 267.6914  92.3896 14.98344842 57296","mean_motion":14.98344842,"eccentricity":0.0003052,"inclination_deg":70.0008,"raan_deg":282.5655,"arg_perigee_deg":267.6914,"mean_anomaly_deg":92.3896,"bstar":0.00045619,"rev_number":5729,"period_min":96.106047128502,"perigee_km":569.88880880014,"apogee_km":574.13117852507,"semimajor_km":6950.1469936626,"source":"CELESTRAK","updated_at":"2026-05-25T13:38:20.225990Z"}}